{"data":{"norad_id":56482,"intl_designator":"2023-064AL","name":"STARLINK-6220","alt_names":[],"object_type":"PAYLOAD","status":"ACTIVE","operator":null,"country":"US","launch_date":"2023-05-10","launch_site_code":"AFWTR","launch_vehicle":null,"mission":null,"orbit_class":"UNKNOWN","rcs_meters":null,"size_class":null,"mass_kg":null,"dimensions":null,"purposes":["comms"],"wikipedia_slug":null,"has_3d_model":false,"image_url":null,"decayed_at":null,"tle_current":{"epoch":"2026-05-24T19:41:24.489312Z","epoch_age_seconds":87261,"freshness":"FRESH","line1":"1 56482U 23064AL  26144.82042233 -.00003654  00000+0 -29843-3 0  9999","line2":"2 56482  69.9985 292.4706 0003240 265.6682  94.4107 14.98352493167149","mean_motion":14.98352493,"eccentricity":0.000324,"inclination_deg":69.9985,"raan_deg":292.4706,"arg_perigee_deg":265.6682,"mean_anomaly_deg":94.4107,"bstar":-0.00029843,"rev_number":16714,"period_min":96.105556384588,"perigee_km":569.73449410729,"apogee_km":574.23817402777,"semimajor_km":6950.1233340675,"source":"CELESTRAK","updated_at":"2026-05-25T13:38:18.073599Z"}}}